| time (UTC) | temp F | wind direction | speed knots | gust knots | rain 1hr in | rain 24hr in | rain mn in | humidity % | barometer mb |
| 20260504070119 | 67 | 356 | 2.6 | 4.3 | 0.00 | 0.00 | 0.00 | 84 | 1015.5 |
| 20260504060107 | 68 | 34 | 2.6 | 6.1 | 0.00 | 0.00 | 0.00 | 81 | 1015.6 |
| 20260504044059 | 69 | 52 | 1.7 | 4.3 | 0.00 | 0.00 | 0.00 | 82 | 1017.1 |
| 20260504043100 | 69 | 52 | 1.7 | 4.3 | 0.00 | 0.00 | 0.00 | 81 | 1017.1 |
| 20260504042103 | 69 | 52 | 1.7 | 3.5 | 0.00 | 0.00 | 0.00 | 81 | 1017.1 |
| 20260504041053 | 69 | 52 | 2.6 | 4.3 | 0.00 | 0.00 | 0.00 | 80 | 1017.1 |
| 20260504040531 | 70 | 52 | 1.7 | 3.5 | 0.00 | 0.00 | 0.00 | 79 | 1017.1 |
| 20260504035057 | 69 | 54 | 2.6 | 4.3 | 0.00 | 0.00 | 0.12 | 80 | 1017.2 |
| 20260504034053 | 69 | 54 | 2.6 | 3.5 | 0.00 | 0.00 | 0.12 | 80 | 1017.1 |
| 20260504033056 | 69 | 55 | 1.7 | 3.5 | 0.00 | 0.00 | 0.12 | 80 | 1017.1 |
| 20260504032058 | 69 | 55 | 0.9 | 3.5 | 0.00 | 0.00 | 0.12 | 80 | 1017.3 |
| 20260504031053 | 69 | 55 | 1.7 | 3.5 | 0.00 | 0.00 | 0.12 | 80 | 1017.1 |
| 20260504031016 | 69 | 55 | 1.7 | 3.5 | 0.00 | 0.00 | 0.12 | 80 | 1017.1 |
| 20260504025051 | 70 | 55 | 1.7 | 0.9 | 0.00 | 0.00 | 0.12 | 79 | 1017.0 |
| 20260504023934 | 70 | 55 | 1.7 | 2.6 | 0.00 | 0.12 | 0.12 | 79 | 1017.2 |
| 20260504023414 | 70 | 55 | 0.9 | 1.7 | 0.00 | 0.12 | 0.12 | 79 | 1017.1 |
| 20260504021926 | 70 | 55 | 0.9 | 2.6 | 0.00 | 0.12 | 0.12 | 78 | 1016.9 |
| 20260504020930 | 71 | 55 | 1.7 | 3.5 | 0.00 | 0.12 | 0.12 | 77 | 1016.9 |
| 20260504020841 | 71 | 55 | 0.9 | 2.6 | 0.00 | 0.12 | 0.12 | 77 | 1016.8 |
| 20260504014908 | 71 | 55 | 2.6 | 6.1 | 0.00 | 0.12 | 0.12 | 76 | 1016.7 |
| 20260504013908 | 71 | 56 | 2.6 | 6.1 | 0.00 | 0.12 | 0.12 | 75 | 1016.7 |
| 20260504012910 | 72 | 51 | 2.6 | 5.2 | 0.00 | 0.12 | 0.12 | 75 | 1016.8 |
| 20260504011907 | 72 | 51 | 2.6 | 5.2 | 0.00 | 0.12 | 0.12 | 75 | 1016.7 |
| 20260504010907 | 72 | 55 | 2.6 | 5.2 | 0.00 | 0.12 | 0.12 | 75 | 1016.6 |
| 20260504005902 | 72 | 55 | 2.6 | 8.7 | 0.00 | 0.12 | 0.12 | 75 | 1016.4 |
| 20260504004901 | 72 | 54 | 3.5 | 7.8 | 0.00 | 0.12 | 0.12 | 74 | 1016.2 |
| 20260504003902 | 72 | 63 | 2.6 | 9.6 | 0.00 | 0.12 | 0.12 | 73 | 1016.1 |
| 20260504002848 | 72 | 65 | 2.6 | 5.2 | 0.00 | 0.12 | 0.12 | 73 | 1016.1 |
| 20260504001848 | 73 | 36 | 3.5 | 7.0 | 0.00 | 0.12 | 0.12 | 72 | 1016.1 |
| 20260504000846 | 73 | 56 | 3.5 | 7.8 | 0.00 | 0.12 | 0.12 | 71 | 1015.9 |
| 20260503235847 | 73 | 66 | 3.5 | 7.0 | 0.00 | 0.12 | 0.12 | 71 | 1015.8 |
| 20260503234854 | 74 | 81 | 2.6 | 7.0 | 0.00 | 0.12 | 0.12 | 70 | 1015.7 |
| 20260503233848 | 74 | 55 | 3.5 | 8.7 | 0.00 | 0.12 | 0.12 | 71 | 1015.8 |
| 20260503233322 | 74 | 56 | 3.5 | 7.8 | 0.00 | 0.12 | 0.12 | 70 | 1015.7 |
| 20260503232339 | 74 | 58 | 3.5 | 9.6 | 0.00 | 0.12 | 0.12 | 70 | 1015.7 |
| 20260503230846 | 75 | 59 | 4.3 | 8.7 | 0.00 | 0.13 | 0.12 | 69 | 1015.6 |
| 20260503225847 | 75 | 70 | 3.5 | 10.4 | 0.00 | 0.13 | 0.12 | 68 | 1015.6 |
| 20260503224845 | 76 | 50 | 3.5 | 7.8 | 0.00 | 0.13 | 0.12 | 68 | 1015.7 |
| 20260503223845 | 76 | 10 | 4.3 | 10.4 | 0.00 | 0.13 | 0.12 | 69 | 1015.6 |
| 20260503222846 | 76 | 50 | 2.6 | 7.8 | 0.00 | 0.13 | 0.12 | 68 | 1015.5 |
| 20260503221844 | 76 | 76 | 3.5 | 8.7 | 0.00 | 0.13 | 0.12 | 68 | 1015.5 |
| 20260503220846 | 76 | 20 | 3.5 | 9.6 | 0.00 | 0.13 | 0.12 | 69 | 1015.6 |
| 20260503215844 | 76 | 34 | 3.5 | 7.8 | 0.00 | 0.14 | 0.12 | 69 | 1015.5 |
| 20260503215412 | 76 | 70 | 3.5 | 8.7 | 0.00 | 0.14 | 0.12 | 69 | 1015.5 |
| 20260503215258 | 76 | 94 | 3.5 | 9.6 | 0.00 | 0.16 | 0.12 | 68 | 1015.3 |
| 20260503215107 | 76 | 79 | 3.5 | 12.2 | 0.00 | 0.16 | 0.12 | 67 | 1015.3 |
| 20260503205845 | 77 | 84 | 4.3 | 10.4 | 0.00 | 0.17 | 0.12 | 66 | 1015.4 |
| 20260503204846 | 77 | 22 | 5.2 | 11.3 | 0.00 | 0.17 | 0.12 | 65 | 1015.5 |
| 20260503203845 | 78 | 54 | 4.3 | 11.3 | 0.00 | 0.17 | 0.12 | 65 | 1015.6 |
| 20260503203315 | 79 | 78 | 4.3 | 9.6 | 0.00 | 0.17 | 0.12 | 62 | 1015.5 |
| 20260503201840 | 79 | 38 | 4.3 | 8.7 | 0.00 | 0.18 | 0.12 | 65 | 1015.5 |
| 20260503200838 | 79 | 82 | 4.3 | 10.4 | 0.00 | 0.18 | 0.12 | 65 | 1015.7 |
| 20260503195839 | 81 | 88 | 4.3 | 10.4 | 0.00 | 0.18 | 0.12 | 60 | 1015.8 |
| 20260503194839 | 80 | 327 | 5.2 | 11.3 | 0.00 | 0.18 | 0.12 | 63 | 1015.8 |
| 20260503194753 | 79 | 10 | 4.3 | 10.4 | 0.00 | 0.18 | 0.12 | 64 | 1016.1 |
| 20260503192834 | 80 | 92 | 3.5 | 9.6 | 0.00 | 0.18 | 0.12 | 63 | 1016.2 |
| 20260503191832 | 81 | 100 | 5.2 | 9.6 | 0.00 | 0.18 | 0.12 | 62 | 1016.3 |
| 20260503190834 | 81 | 356 | 4.3 | 9.6 | 0.00 | 0.18 | 0.12 | 61 | 1016.6 |
| 20260503185835 | 79 | 57 | 4.3 | 12.2 | 0.00 | 0.18 | 0.12 | 66 | 1016.8 |
| 20260503184819 | 80 | 91 | 6.1 | 13.0 | 0.00 | 0.18 | 0.12 | 66 | 1016.9 |
| 20260503183819 | 79 | 5 | 5.2 | 10.4 | 0.00 | 0.18 | 0.12 | 66 | 1017.0 |
| 20260503182818 | 79 | 15 | 5.2 | 11.3 | 0.00 | 0.18 | 0.12 | 70 | 1017.1 |
| 20260503182307 | 78 | 5 | 5.2 | 11.3 | 0.00 | 0.18 | 0.12 | 69 | 1017.2 |
| 20260503180820 | 78 | 42 | 4.3 | 10.4 | 0.00 | 0.18 | 0.12 | 69 | 1017.4 |
| 20260503175813 | 77 | 65 | 4.3 | 10.4 | 0.00 | 0.18 | 0.12 | 69 | 1017.5 |
| 20260503174812 | 76 | 96 | 4.3 | 8.7 | 0.00 | 0.18 | 0.12 | 72 | 1017.7 |
| 20260503174253 | 75 | 31 | 5.2 | 11.3 | 0.00 | 0.18 | 0.12 | 73 | 1017.7 |
| 20260503172814 | 75 | 5 | 4.3 | 8.7 | 0.00 | 0.18 | 0.12 | 74 | 1017.8 |
| 20260503171759 | 74 | 19 | 5.2 | 12.2 | 0.00 | 0.18 | 0.12 | 73 | 1017.8 |
| 20260503170756 | 74 | 15 | 5.2 | 11.3 | 0.00 | 0.18 | 0.12 | 74 | 1017.6 |
| 20260503150725 | 69 | 52 | 2.6 | 8.7 | 0.00 | 0.18 | 0.12 | 86 | 1018.3 |
| 20260503130653 | 66 | 46 | 5.2 | 12.2 | 0.00 | 0.18 | 0.12 | 91 | 1016.9 |
| 20260503110634 | 65 | 20 | 4.3 | 9.6 | 0.00 | 0.18 | 0.12 | 95 | 1015.6 |
| 20260503081601 | 66 | 5 | 5.2 | 12.2 | 0.01 | 0.16 | 0.10 | 95 | 1014.7 |
| 20260503080602 | 66 | 31 | 5.2 | 9.6 | 0.01 | 0.16 | 0.10 | 95 | 1014.7 |
| 20260503072601 | 67 | 54 | 4.3 | 10.4 | 0.02 | 0.15 | 0.09 | 95 | 1014.2 |
| 20260503071600 | 67 | 83 | 4.3 | 9.6 | 0.03 | 0.15 | 0.09 | 95 | 1014.4 |
| 20260503070601 | 68 | 19 | 4.3 | 8.7 | 0.03 | 0.15 | 0.09 | 95 | 1014.6 |